SYRACUSE 4B

Last updated on Thu Nov 21 2024 00:02:45 GMT+0000 (Coordinated Universal Time)

1 57214U 23093B 24324.08452145 -.00000052 00000+0 00000+0 0 9996 2 57214 0.0163 296.1209 0000377 351.3079 155.0408 1.00269232 1183
UTC large
Height (km)
Speed (km/s)
/
Latitude / Longitude
Inclination (degrees)
Orbital Period (minutes)
Azimuth
Elevation
Range (km)
Doppler Factor

Next 0 passes for location: London (51.5072 / 0.1276)

Sorry there are no passes over London.